Overview Statistics Trail Chart Weather Telemetry Raw packets
 

This is the latest recevied weather packets stored in our database for station/object DG0LHZ-10. If no packets are shown the sender has not sent any weather packets the latest 10 day(s).

<< 35 36 37 38 39 >>
Time Temp. Humidity Pressure Rain* Wind** Luminosity Snow
1787533047 12.78° C 49% 1024.7 hPa - - - -
1787532147 13.33° C 49% 1024.5 hPa - - - -
1787531247 13.33° C 49% 1024.4 hPa - - - -
1787530346 13.89° C 49% 1024.4 hPa - - - -
1787529446 13.89° C 48% 1024.4 hPa - - - -
1787528546 13.89° C 48% 1024.5 hPa - - - -
1787527646 14.44° C 48% 1024.3 hPa - - - -
1787526746 14.44° C 47% 1024.3 hPa - - - -
1787525846 14.44° C 46% 1024.3 hPa - - - -
1787524946 15° C 46% 1024.3 hPa - - - -
1787524046 15° C 45% 1024.3 hPa - - - -
1787523146 15.56° C 45% 1024.3 hPa - - - -
1787522310 15.56° C 45% 1024.2 hPa - - - -
1787521346 16.11° C 45% 1024.2 hPa - - - -
1787520446 16.11° C 45% 1024.3 hPa - - - -
1787519546 16.67° C 44% 1024.1 hPa - - - -
1787518646 16.67° C 44% 1024 hPa - - - -
1787517746 17.22° C 43% 1024 hPa - - - -
1787516846 17.78° C 43% 1024 hPa - - - -
1787515945 17.78° C 42% 1024 hPa - - - -
1787515045 18.33° C 42% 1023.9 hPa - - - -
1787514145 18.89° C 42% 1023.9 hPa - - - -
1787513245 18.89° C 41% 1024 hPa - - - -
1787512345 19.44° C 41% 1024.1 hPa - - - -
1787511445 20° C 41% 1024 hPa - - - -

* Rain since midnight (hover to see other rain measurements)
** Current wind speed in m/s (hover to see current wind gust speed)